logo dgac
Martes 28 de Mayo del 2024
Buscar por aerodromo o helipuerto
Ingrese nombre de aeródromo, localidad o designador OACI:

Aeródromo: Chile Chico (PUB) (SCCC)

Ubicación: Chile Chico, XI Región, Chile (46º 34' 58'' S, 71º 41' 12'' W) Ver ubicación en el mapa

Pistas

Luces
Orientación Dimensión Pendiente Superficie Resistencia APCH THR RWY PAPI
12/30 1200 x 23 0,70 ASPH 20.000 Kg No No No No
Horas de operación HJ
Elevación 326 m / 1070 ft
Otra Información Adm : D.G.A.C.
Uso : PUB
Ubicado : 7 km SE Chile Chico
TEL 672411284 Cel +56 9 61740206
email : aro.chilechico@dgac.gob.cl



Otra información ver AIP-Chile Volumen I AD 3.9-3.7-C
CCCM/FCCV Descargar CCCM/FCCV
andera de Chile
Mapa de Chile Chico (PUB) (SCCC)

Último METAR

METAR SCCC 272100Z 23003KT 9999 BKN036 06/01 Q1014

Último TAF

No hay tafs registrados para este aeródromo

Últimas fotos cámaras

Imagen aerodromo Chile Chico (PUB) (SCCC) S-Este tomada el 28-05-2024 07:34:01 Imagen aerodromo Chile Chico (PUB) (SCCC) N-Oeste tomada el 28-05-2024 07:34:01

Último NOTAM

C2088/24 NOTAMR C1598/24 Q)SCTZ/QMXLC/IV/M/A/000/999/4635S07141W005 A)SCCC B)2405142040 C)2405312359 E)TWY CLSD WIP